RH
72 73 77 78 81 74 74 77 76 76 75 80 84 84 86 82 64 58 56 54 66 63 66 67 67 69 74 71 73 78 76 76 77
76 78 79 79 80 74 73 77 78 74 72 81 85 87 89 63 60 59 56 55 66 62 67 67 67 67 70 70 72 77 75 76 74
79 80 81 78 75 74 72 75 77 76 72 77 84 87 86 66 63 64 57 70 65 64 69 69 69 70 71 69 74 77 77 75 76
82 85 82 78 78 78 79 76 74 76 76 78 82 88 89 66 65 64 56 75 65 67 68 70 71 72 72 73 76 77 79 76 74
93 91 86 84 85 85 83 81 78 78 81 81 86 90 88 65 69 67 61 74 65 69 70 70 70 72 74 74 74 78 76 78 74
83 92 93 92 91 90 87 84 82 85 86 82 87 86 63 62 65 65 83 72 67 71 73 72 73 72 73 75 75 74 77 78 79
80 84 84 83 88 86 89 87 87 83 66 67 77 56 63 66 67 64 83 72 69 73 75 75 74 73 73 72 73 74 77 80 81
78 87 80 75 78 67 75 82 73 71 69 67 64 54 54 62 67 75 81 74 70 74 75 75 74 73 72 73 73 75 75 79 83
84 79 76 79 87 85 73 63 62 61 67 65 62 54 55 56 64 72 88 80 71 72 74 75 74 72 72 73 74 75 76 76 80
75 71 74 66 69 88 94 79 61 57 57 63 67 62 57 57 61 63 89 85 83 74 72 73 73 73 72 73 74 75 75 76 77
89 72 68 71 65 64 78 84 88 70 60 58 59 63 68 70 68 60 62 88 81 76 75 74 73 74 75 74 74 75 75 75 76
97 94 78 70 63 57 58 54 74 82 65 58 53 52 53 58 62 65 65 66 86 83 72 76 75 75 74 76 77 74 76 76 75
96 97 97 93 72 67 62 61 58 63 75 73 67 57 51 45 49 58 62 66 63 76 82 80 76 77 74 70 72 78 76 77 76
95 96 97 96 96 84 75 70 66 63 69 56 65 71 64 46 40 47 56 59 62 65 76 89 90 85 79 74 70 72 80 79 77
92 94 94 95 95 96 94 87 81 78 79 53 45 49 52 52 42 40 47 59 63 64 72 82 90 95 93 87 80 73 75 81 82
90 92 93 95 95 94 94 96 94 94 89 77 59 66 61 60 58 45 60 58 49 49 62 89 86 85 89 90 89 85 76 77 81
86 91 92 93 93 93 92 93 95 95 96 96 91 85 82 67 52 52 46 44 43 54 67 71 77 78 76 80 85 86 84 81 82
82 85 89 92 93 94 93 93 90 94 93 92 94 91 87 89 81 52 45 45 52 59 58 59 62 65 68 68 72 81 80 80 80
78 83 84 85 87 89 91 92 94 92 90 92 83 88 79 84 83 51 43 47 51 56 53 53 54 56 62 69 74 74 73 72 72
62 67 76 81 86 87 87 91 92 93 93 91 90 85 88 75 80 78 52 45 49 53 52 51 53 53 54 56 64 68 66 66 66
Wind_Speed
17 15 13 12 12 13 12 13 13 12 11 12 13 12 11 8 8 8 9 11 15 16 16 16 16 17 17 17 17 18 19 19 19
16 16 14 13 13 12 12 13 12 11 10 11 11 11 9 9 9 9 9 11 14 14 15 15 15 15 16 16 18 18 19 19 19
16 14 14 14 15 13 12 12 12 12 12 11 10 9 8 7 8 8 8 10 13 14 14 14 14 15 15 16 17 17 17 19 19
15 13 12 13 13 12 11 10 11 11 10 10 9 9 7 7 5 6 6 10 13 12 12 13 14 14 15 15 15 16 17 18 18
10 7 10 11 11 11 10 10 10 10 9 9 9 9 7 6 5 4 5 10 12 12 12 12 12 13 14 14 15 15 16 16 16
11 10 8 6 9 9 8 9 9 8 7 8 9 6 4 5 3 2 2 9 10 10 11 11 11 12 12 13 14 14 14 15 15
7 10 12 10 6 6 4 9 8 5 4 4 6 3 5 4 4 2 4 10 8 9 9 9 10 11 11 11 12 13 13 13 14
6 4 5 5 9 3 1 5 3 5 4 4 4 5 5 4 3 3 5 7 7 7 7 7 8 9 9 10 11 12 13 12 13
6 5 6 6 5 6 4 1 3 3 4 5 5 7 5 4 3 4 5 5 6 6 6 6 6 7 7 9 10 10 11 12 12
5 6 5 5 5 6 5 4 2 2 2 2 3 7 6 6 4 3 5 5 5 4 4 5 4 4 5 6 7 9 9 10 10
5 5 6 6 6 5 4 3 4 3 3 4 4 4 4 4 4 3 3 4 3 3 3 2 2 2 3 4 5 7 8 8 8
5 4 5 5 5 7 6 6 4 3 3 4 4 3 4 3 3 2 2 3 4 3 2 4 5 6 8 4 4 5 5 6 6
7 4 4 5 5 5 6 6 4 4 4 3 3 3 3 3 4 3 3 3 2 2 4 1 4 5 5 6 6 4 4 4 4
7 4 4 4 4 5 4 5 5 5 5 4 2 3 3 3 3 3 3 3 2 2 4 5 7 6 5 4 3 3 4 4 3
6 4 5 5 3 4 3 5 6 5 6 4 3 3 2 1 2 2 1 2 3 3 3 4 7 13 15 10 5 2 2 4 4
5 4 5 6 4 4 4 3 6 6 7 2 3 3 5 6 4 2 3 5 5 6 5 3 4 7 17 18 16 15 3 4 7
4 5 6 6 2 4 4 4 3 1 7 3 1 2 3 4 8 6 5 7 5 6 7 8 8 7 8 13 19 18 17 13 14
5 6 5 4 2 3 4 5 4 4 3 4 2 3 2 1 2 7 7 7 5 6 8 9 9 9 8 10 13 16 17 16 14
4 4 5 4 2 4 3 4 4 2 4 1 2 1 3 3 2 3 4 6 7 7 6 7 9 9 8 12 15 16 15 14 14
5 5 6 5 2 3 4 2 5 4 2 1 2 2 2 3 1 2 2 3 5 6 6 6 7 9 8 8 12 15 14 14 11
Wind_Direction
136 130 125 126 124 122 113 114 115 110 106 106 104 100 94 92 84 77 76 75 75 77 74 59 59 58 55 55 57 53 59 53 51
135 132 132 136 135 129 120 121 118 108 107 111 104 96 86 95 87 80 78 81 85 76 73 71 68 61 58 61 55 55 63 59 57
136 135 135 139 138 132 124 124 125 116 108 110 102 89 81 91 88 84 88 85 78 74 77 76 72 68 62 54 58 54 61 60 57
139 138 138 138 136 131 124 121 120 121 119 113 114 99 80 91 84 85 86 86 86 82 77 75 74 70 67 62 52 55 57 61 59
70 125 144 137 131 129 129 128 123 115 121 120 119 107 100 100 96 83 87 85 87 86 82 78 75 71 67 64 60 54 59 61 59
35 33 68 100 128 124 130 128 122 113 105 130 122 124 115 113 99 97 77 105 91 87 84 79 76 75 71 68 65 63 59 57 59
40 26 31 34 84 96 129 130 123 136 133 122 139 125 131 123 116 95 34 104 99 94 88 82 78 76 74 71 71 68 66 60 57
34 27 14 12 10 57 100 138 160 166 161 157 156 150 140 131 129 105 59 91 103 101 94 89 84 79 76 74 72 71 69 63 59
27 27 21 21 7 7 6 142 157 177 185 178 164 166 148 140 134 118 88 84 102 104 105 97 89 83 78 75 75 72 72 70 60
69 32 33 36 20 8 353 352 20 86 118 142 138 161 151 146 141 124 67 74 72 105 120 119 113 103 96 91 86 84 77 73 72
11 50 36 22 17 354 4 355 354 352 48 70 76 82 90 113 131 134 119 68 52 50 46 98 113 129 144 133 112 97 90 82 75
44 21 39 29 14 11 6 12 9 12 3 58 51 57 61 69 81 89 101 108 68 24 8 50 54 40 35 97 154 125 108 97 86
69 40 24 11 17 33 17 17 20 18 25 4 3 18 25 40 32 32 34 46 19 29 18 78 61 42 26 25 47 155 137 119 103
83 60 45 24 30 25 44 26 29 25 3 343 2 345 348 359 12 16 27 31 26 360 345 73 68 55 44 34 17 55 184 166 153
67 74 66 52 40 32 21 76 38 34 351 326 337 5 352 3 344 0 7 30 19 20 346 114 77 57 45 41 28 318 156 185 190
85 75 72 65 47 53 19 61 65 30 354 326 35 70 36 27 21 19 55 49 32 48 25 73 93 74 54 42 41 31 228 136 81
70 77 69 69 56 52 53 55 106 146 24 28 40 42 21 38 18 2 47 42 33 46 51 56 54 64 71 45 41 40 45 75 80
71 77 79 75 70 75 54 57 66 79 60 39 21 152 99 69 325 6 24 39 37 43 60 63 64 62 61 50 40 34 43 50 52
84 85 85 70 47 83 57 79 77 117 95 23 57 238 104 56 54 183 22 47 42 47 57 66 62 58 62 53 41 37 40 40 45
91 106 109 99 101 66 72 50 88 47 90 346 94 304 97 91 263 27 14 64 35 50 53 59 64 55 55 56 40 37 37 33 28